Regional Weather Roundup
Issued by NWS

Home | Current Version | Previous Version | Text Only | Print | Product List | Glossary Off
Versions: 1 2 3 4 5 6 7 8 9 10 11 12 13 14 15 16 17 18 19 20 21 22 23 24 25 26 27 28 29 30 31 32 33 34 35 36 37 38 39 40 41 42 43 44 45 46 47 48 49 50

000
ASUS43 KMKX 290110
RWRWI

WISCONSIN REGIONAL WEATHER ROUNDUP
NATIONAL WEATHER SERVICE MILWAUKEE/SULLIVAN WI
700 PM CST WED JAN 28 2015

NOTE: "FAIR" INDICATES FEW OR NO CLOUDS BELOW 12,000 FEET WITH NO
SIGNIFICANT WEATHER AND/OR OBSTRUCTIONS TO VISIBILITY.

WIZ001-002-006>008-014>016-023>028-290200-
NORTHWEST WISCONSIN

CITY           SKY/WX    TMP DP  RH WIND       PRES   REMARKS
SUPERIOR ARPT  CLOUDY    31  25  81 CALM      29.86S
ASHLAND        CLOUDY    31  24  75 SW6       29.86R WCI  25
HAYWARD        CLOUDY    27  22  81 SE6       29.85R HAZE    WCI  20
SIREN          CLOUDY    30  25  81 CALM      29.85R
CUMBERLAND     CLOUDY    28  25  86 SE5       29.82F FOG     WCI  23
RICE LAKE      CLOUDY    29  25  84 E7        29.85F HAZE    WCI  22
CHETEK         CLOUDY    28  25  87 E8        29.84F WCI  20
LADYSMITH      CLOUDY    27  24  87 S3        29.87R FOG
EAU CLAIRE     CLOUDY    29  23  78 E6        29.84R WCI  23
MENOMONIE      CLOUDY    31  26  82 E7        29.84F HAZE    WCI  24
NEW RICHMOND   CLOUDY    30  26  85 CALM      29.83S FOG
OSCEOLA        CLOUDY    31  28  86 CALM      29.86S
$$

WIZ003>005-009-010-017-018-290200-
NORTH CENTRAL WISCONSIN

CITY           SKY/WX    TMP DP  RH WIND       PRES   REMARKS
MANITOWISH WTR CLOUDY    27  21  79 S7        29.82R WCI  19
ARBOR VITAE    CLOUDY    29  23  77 S9        29.82S WCI  21
WOODRUFF       CLOUDY    29  23  77 S9        29.82S WCI  21
RHINELANDER    CLOUDY    26  19  74 SE9       29.84S WCI  17
EAGLE RIVER    CLOUDY    28  19  71 S7        29.83S WCI  20
LAND O LAKES   CLOUDY    28  21  74 S10       29.82F WCI  19
PHILLIPS       CLOUDY    28  22  79 S5        29.83R WCI  22
TOMAHAWK       CLOUDY    27  20  77 CALM      29.84S
MEDFORD        MOCLDY    26  21  79 SE6       29.83R WCI  20
MERRILL        CLOUDY    27  21  76 SE8       29.84F WCI  19
$$

WIZ029-030-035-036-043>047-290200-
CENTRAL WISCONSIN

CITY           SKY/WX    TMP DP  RH WIND       PRES   REMARKS
WAUSAU         CLOUDY    28  19  69 SE10      29.84F WCI  19
MOSINEE        CLEAR     27  21  80 SE9       29.86F WCI  17
MARSHFIELD     MOCLDY    28  20  71 SE14      29.84S WCI  17
STEVENS POINT  MOCLDY    26  19  74 SE6       29.87S WCI  19
WAUPACA        MOCLDY    30  22  74 E9        29.89F WCI  21
WAUTOMA        MOCLDY    29  21  71 CALM      29.89S
WISC RAPIDS    MOCLDY    28  19  69 SE6       29.87S WCI  22
CAMP DOUGLAS   CLOUDY    30  27  86 E6        29.85F WCI  24
$$

WIZ011>013-019>022-031-037>040-048>050-290200-
NORTHEAST WISCONSIN

CITY           SKY/WX    TMP DP  RH WIND       PRES   REMARKS
ANTIGO         CLOUDY    26  21  83 SE12      29.86S WCI  15
SHAWANO        CLOUDY    31  23  74 SE7       29.92F WCI  24
OCONTO         CLOUDY    30  26  84 S8        29.94F WCI  22
STURGEON BAY   CLOUDY    30  23  74 S22       29.97F WCI  17
GREEN BAY      CLOUDY    30  24  78 SE13      29.93F WCI  20
MANITOWOC      CLOUDY    32  25  75 S18G26    29.95F WCI  20
APPLETON       MOCLDY    28  21  74 SE10      29.90F WCI  19
CLINTONVILLE   CLOUDY    30  23  74 SE7       29.90F WCI  23
OSHKOSH        CLOUDY    30  20  66 SE10      29.89F WCI  21
$$

WIZ032>034-041-042-053>061-290200-
SOUTHWEST WISCONSIN

CITY           SKY/WX    TMP DP  RH WIND       PRES   REMARKS
LA CROSSE      CLOUDY    34  23  64 S12       29.83S WCI  25
SPARTA         CLOUDY    32  23  69 SE8       29.85S WCI  25
VIROQUA        CLOUDY    31  25  79 S10       29.82S WCI  22
BOSCOBEL       CLOUDY    33  25  72 VRB5      29.88R WCI  29
PRAIRIE DU CHI CLOUDY    32  25  73 E7        29.84F WCI  26
PLATTEVILLE    CLOUDY    32  29  87 SE10      29.86R WCI  24
$$

WIZ056-057-062-063-064-067-068-290200-
SOUTH CENTRAL WISCONSIN

CITY           SKY/WX    TMP DP  RH WIND       PRES   REMARKS
REEDSBURG      CLOUDY    31  23  73 SE9       29.87R WCI  22
BARABOO/DELLS  CLOUDY    30  23  75 S8        29.88R WCI  22
LONE ROCK      CLOUDY    32  24  72 S8        29.89R WCI  25
MINERAL POINT  CLOUDY    32  28  86 SE15      29.85R WCI  22
MADISON        CLOUDY    32  22  66 S18G25    29.88F WCI  20
MIDDLETON      CLOUDY    32  24  71 S13       29.88R WCI  23
WATERTOWN      CLOUDY    30  22  70 SE10G16   29.87F WCI  21
MONROE         CLOUDY    32  28  86 SE16      29.86S WCI  21
JANESVILLE     CLEAR     34  25  69 SE14G20   29.89F WCI  24
$$

WIZ051-052-058>065-066-070>072-290200-
SOUTHEAST WISCONSIN

CITY           SKY/WX    TMP DP  RH WIND       PRES   REMARKS
MILWAUKEE      CLOUDY    32  22  66 S20       29.95F WCI  20
WAUKESHA       CLOUDY    28  21  74 SE15G23   29.93F WCI  17
MILWAUKEE/TIMM CLEAR     32  19  59 SE15G21   29.95F WCI  22
RACINE         CLOUDY    32  23  69 S23G31    29.97F WCI  19
BURLINGTON     CLOUDY    29  22  73 SE10      29.91F WCI  20
KENOSHA        CLOUDY    32  23  69 SE21      29.95F WCI  20
FOND DU LAC    CLOUDY    30  21  69 SE15G23   29.89F WCI  19
SHEBOYGAN      CLOUDY    32  23  69 S15G22    29.94F WCI  22
WEST BEND      CLOUDY    32  23  69 SE14G20   29.91F WCI  22
JUNEAU         MOCLDY    30  21  70 SE15      29.88F WCI  19
$$

LSZ147-162-290200-
LAKE SUPERIOR

STATION/POSITION TIME  TEMP    WIND        PRES    WAVE
                       AIR SEA DIR/SP/G            HT/PER
                 (UTC) (F)     (DEG/KT/KT) (MB)    (FT/S)
DEVILS ISLAND    0100   33     210/  8/  9 1011.5R
PORT WING        0000   30     220/  2/  2 1011.2R
SAXON HARBOR     0000   32        CALM     1010.5
$$

LMZ867-665-643>646-290200-
LAKE MICHIGAN

STATION/POSITION TIME  TEMP    WIND        PRES    WAVE
                       AIR SEA DIR/SP/G            HT/PER
                 (UTC) (F)     (DEG/KT/KT) (MB)    (FT/S)
NORTHPORT PIER   0010   31     150/ 16     1016.3F
SISTER BAY       0013   32     160/ 16/ 27   N/A
KEWAUNEE LAKESHO 0000   32     170/ 26/ 30 1014.7F
SHEBOYGAN LAKESH 0100   33     160/ 27/ 32 1014.8F
PORT WASHINGTON  0040   34     160/ 22     1014.9F
MILWAUKEE LAKESH 0000   33     150/ 23/ 28   N/A
KENOSHA   LAKESH 0100   32     160/ 28/ 32 1013.9F
$$

TC  - TEMPERATURE IN CELSIUS
VSB - VISIBILITY IN STATUTE MILES
WCI - WIND CHILL INDEX
HX  - HEAT INDEX



USA.gov is the U.S. government's official web portal to all federal, state and local government web resources and services.